Tracking 17694 objects as of 28-May-2016
HD Live streaming from Space Station
objects crossing your sky now

CZ-3C R/B

Track CZ-3C R/B now!
10-day predictions


NORAD ID: 36591
Int'l Code: 2010-024B
Perigee: 184.2 km
Apogee: 19,758.7 km
Inclination: 20.6 °
Period: 346.5 minutes
Semi major axis: 16342 km
RCS: 15.0139 m2 (large)
Launch date: June 2, 2010
Source: People's Republic of China (PRC)
Launch site: Xichang Space Center, China (XSC)

Note: This is a ROCKET BODY
Your satellite tracking list
Your tracking list is empty





NASA's NSSDC Master Catalog

Two Line Element Set (TLE):
1 36591U 10024B   16149.52392085  .00067765 -18945-6  10385-2 0  9990
2 36591  20.6402 251.5766 5988861  28.6357 354.0315  4.15552980 69643
Source of the keplerian elements: AFSPC

N2YO: 565